Wind_Speed
9 10 9 9 8 7 7 8 7 7 8 8 8 9 8 8 8 9 9 9 10 9 10 10 11 12 12 12 12 12 11 11 10 8 8 9 9 9 10 9 10 10 8
9 10 10 9 9 8 8 9 8 8 8 8 8 8 8 8 9 8 9 9 9 9 10 11 12 12 13 12 11 11 11 10 11 10 10 9 10 10 10 9 9 9 9
10 10 11 10 10 9 9 9 8 8 8 7 8 8 8 8 9 9 10 10 10 10 11 12 13 13 13 13 12 11 11 12 11 11 12 12 11 11 11 10 9 9 9
10 11 11 11 10 10 10 9 8 8 8 7 8 8 8 8 8 10 10 10 10 11 12 12 11 11 11 12 13 12 12 12 12 12 12 12 13 13 12 11 11 11 11
11 12 12 11 11 10 10 9 9 9 9 9 9 9 9 9 10 10 11 11 10 11 12 11 11 11 12 12 13 13 13 13 13 13 13 13 13 14 13 13 13 12 12
12 12 12 11 11 11 10 10 10 10 10 10 10 10 10 11 11 12 12 12 12 11 11 11 11 12 12 12 13 14 14 14 14 14 14 14 14 14 14 14 14 14 13
13 12 12 12 12 12 11 11 11 12 12 12 12 12 12 12 13 13 13 13 13 12 12 12 13 13 12 13 14 15 14 15 15 15 15 16 16 15 15 15 15 15 15
14 13 13 13 13 13 13 13 13 12 13 13 13 13 13 14 14 14 13 13 13 14 14 14 15 15 14 14 15 15 15 15 15 15 16 17 17 17 17 17 16 16 16
14 14 14 14 14 14 14 13 13 13 14 14 14 14 14 15 15 14 14 14 15 15 15 16 17 16 16 16 16 16 17 17 16 16 17 17 18 18 18 18 18 18 18
15 14 14 15 15 15 15 15 15 16 15 15 15 15 16 16 16 15 15 15 15 16 17 18 18 18 18 18 18 18 18 17 17 17 17 17 18 18 18 18 18 19 19
16 16 16 16 16 16 16 16 16 17 16 16 17 17 17 18 18 17 17 16 17 17 18 19 19 19 20 19 18 18 18 19 19 19 19 18 18 18 18 19 19 20 20
17 17 17 17 16 17 17 17 17 17 17 17 18 18 18 19 19 19 19 18 18 18 19 20 20 20 20 20 19 19 19 20 21 20 20 19 19 19 19 19 20 21 21
17 18 18 17 17 17 17 18 18 17 17 17 18 18 18 18 19 19 19 19 19 20 20 20 20 20 20 20 20 21 21 21 21 21 21 21 21 21 20 20 21 21 22
19 19 19 19 18 17 17 17 18 17 17 18 18 18 18 18 19 19 19 20 19 20 20 21 21 21 21 22 21 21 22 22 22 22 22 22 23 23 22 22 22 22 23
20 20 21 20 20 19 18 18 18 18 18 18 18 18 18 19 19 19 20 20 20 21 21 22 22 22 22 22 21 21 22 22 23 23 24 24 24 24 24 24 24 24 24
22 22 21 21 21 20 19 19 19 19 19 18 19 19 19 20 20 20 21 21 22 23 22 23 23 23 24 24 24 23 23 24 24 25 24 24 25 25 25 25 25 25 25
22 22 21 21 21 21 20 20 20 20 19 19 20 20 20 21 21 21 22 22 23 23 24 23 24 24 24 25 25 25 25 25 26 25 25 25 26 26 26 26 26 26 26
22 22 22 22 22 22 21 21 21 21 20 20 21 21 21 21 21 22 22 23 23 24 24 23 24 24 23 24 24 25 26 26 26 26 26 26 26 26 27 27 27 27 27
22 22 22 22 22 22 22 22 22 22 22 21 22 22 22 22 22 22 23 23 23 24 24 24 24 24 24 24 24 25 25 26 26 25 25 26 26 26 26 27 27 27 26
23 23 23 22 22 23 22 22 22 22 22 22 22 22 22 22 22 23 23 23 23 23 23 23 23 23 23 24 24 25 25 25 25 25 26 26 26 25 24 25 25 26 26
23 23 22 22 23 23 22 22 22 22 23 23 22 22 21 21 22 22 22 23 23 23 23 23 23 23 23 24 24 24 25 25 25 25 26 26 26 25 24 24 23 24 24
23 23 23 24 23 22 21 21 22 22 22 22 22 21 21 21 21 21 22 22 22 22 22 22 22 23 23 23 23 23 24 24 24 24 24 25 25 24 24 24 23 23 23
22 22 22 21 21 20 20 20 20 21 21 21 20 20 21 21 21 21 21 20 21 22 22 22 22 22 22 22 22 22 23 23 23 23 23 24 24 23 23 22 22 22 23
21 20 20 20 20 21 21 20 21 21 21 21 20 20 21 22 21 21 21 21 21 22 22 22 22 22 22 21 21 21 21 21 22 22 22 23 22 22 22 22 23 23 23
21 21 21 21 21 21 22 22 22 21 20 21 21 21 22 21 21 21 21 21 21 22 22 22 22 21 21 20 21 20 20 21 20 20 20 21 21 22 21 22 22 22 22
21 22 22 22 21 21 22 22 23 21 21 20 20 20 21 21 21 20 20 20 21 21 22 22 21 20 20 19 20 20 19 19 19 19 19 20 20 21 21 21 21 21 21
Wind_Direction
302 301 303 304 300 298 298 294 294 292 293 279 265 263 266 268 272 276 272 278 280 274 274 276 276 275 275 275 273 269 268 273 277 278 278 282 286 282 278 274 265 261 268
302 305 304 303 298 296 296 292 289 289 290 285 277 272 273 273 274 279 279 282 282 282 280 279 280 278 275 273 270 269 274 277 275 273 275 278 279 283 279 274 276 268 269
298 299 300 298 295 291 290 288 285 285 284 283 279 277 277 274 271 275 277 280 277 279 284 281 281 280 274 270 270 271 274 279 277 274 276 276 275 279 278 286 283 277 279
295 293 296 293 291 290 288 288 286 288 286 281 277 279 283 282 274 273 274 276 277 279 281 279 277 278 278 274 271 268 271 277 278 280 280 278 274 276 279 279 280 278 279
293 290 293 292 289 287 283 284 285 287 288 284 278 277 281 282 279 277 274 273 277 282 280 277 275 278 280 278 275 271 272 275 277 280 282 280 276 276 276 275 278 277 276
289 289 294 293 290 287 282 280 283 286 288 287 285 283 283 282 279 278 274 272 274 279 279 277 277 277 279 281 279 275 272 271 274 278 281 282 278 275 274 275 277 277 276
285 282 288 293 291 286 279 278 281 286 287 286 286 284 284 285 283 280 278 277 277 277 277 279 278 280 279 281 283 278 275 272 272 274 279 280 278 276 277 275 275 277 275
282 277 279 286 287 285 282 278 277 279 281 284 286 286 285 285 286 283 282 282 281 282 279 280 283 280 277 278 279 276 275 274 272 273 277 278 277 275 276 276 275 274 273
282 281 279 282 282 282 282 280 278 279 282 281 281 285 286 286 286 283 281 280 281 283 285 286 286 283 279 277 278 277 277 277 275 276 276 276 275 273 274 273 272 272 272
280 282 282 280 281 283 283 284 284 283 281 278 278 283 285 284 282 280 280 281 281 282 284 287 287 285 284 282 278 276 277 277 275 275 275 276 276 274 272 272 271 272 273
276 279 281 281 282 284 285 285 284 286 281 278 279 282 283 283 280 280 279 279 282 284 287 288 286 285 283 281 279 277 276 276 275 276 274 276 276 275 273 271 270 272 273
277 278 280 281 282 285 286 284 284 285 282 280 281 281 282 281 279 278 279 279 280 284 286 288 287 287 284 281 280 278 277 277 275 276 275 275 275 275 274 275 273 272 271
276 279 279 279 282 285 285 286 284 282 284 282 282 283 283 282 278 279 280 280 281 283 285 287 287 285 282 283 282 280 279 278 274 275 276 275 274 274 274 275 274 272 272
276 277 278 278 280 283 285 285 285 285 284 284 282 283 283 282 282 282 282 281 281 283 284 284 284 283 280 281 281 281 279 278 275 273 274 273 272 272 273 274 273 272 271
274 275 276 276 277 279 282 283 284 286 285 283 283 284 284 285 285 285 285 284 283 284 284 281 280 279 280 280 282 283 280 277 273 273 273 272 271 272 273 273 271 271 271
273 274 275 275 276 277 281 282 283 285 284 282 282 283 284 285 285 286 286 286 285 285 286 284 282 280 279 279 280 279 279 276 272 270 271 271 270 272 273 271 270 270 269
270 270 272 272 276 278 280 281 283 285 286 285 285 285 286 285 284 285 286 285 286 285 285 284 282 280 279 279 280 279 278 274 272 271 271 272 270 271 271 270 270 269 267
267 268 270 272 275 278 279 280 283 284 285 285 285 286 285 285 285 286 286 287 288 288 288 286 284 281 279 279 280 281 280 277 274 274 272 273 274 272 271 271 270 269 269
266 267 269 272 275 277 278 280 281 282 284 285 285 285 285 285 285 286 286 287 288 289 289 287 285 283 281 281 282 281 280 278 275 274 272 273 275 273 272 271 270 270 270
268 268 270 272 274 276 277 279 280 281 283 286 287 287 286 285 286 286 287 288 289 290 289 287 285 284 283 283 282 282 280 279 278 276 274 273 274 273 270 270 270 269 269
267 268 269 270 272 273 276 278 279 280 283 285 287 287 285 286 288 288 288 289 290 290 289 287 286 285 284 283 282 282 281 279 278 277 275 275 275 274 272 270 271 270 270
268 269 269 269 269 269 270 273 277 281 284 285 286 288 287 287 287 287 289 291 290 290 289 288 286 285 285 284 284 282 282 281 280 280 279 276 275 274 273 272 272 271 271
270 270 270 269 270 270 272 275 281 283 283 284 284 286 289 289 288 287 288 290 290 290 290 289 288 287 285 285 284 283 283 283 283 283 281 279 276 275 274 273 275 276 276
270 268 269 269 269 271 274 277 281 282 282 282 280 283 288 289 290 290 290 290 290 290 290 290 289 288 286 285 284 282 280 282 284 283 282 280 277 275 274 274 275 276 277
267 267 270 270 270 272 274 276 279 281 282 282 282 283 287 290 290 289 290 291 291 292 291 290 290 289 286 284 284 283 282 283 283 283 283 282 279 278 276 276 276 276 275
269 269 269 270 271 273 275 276 278 279 280 282 282 280 284 287 287 287 290 291 292 292 292 292 292 290 287 285 284 284 284 283 283 283 284 283 282 279 277 276 276 275 276
Height
5860 5859 5859 5859 5859 5859 5859 5859 5860 5860 5860 5859 5859 5860 5861 5862 5863 5863 5863 5864 5864 5865 5865 5866 5866 5866 5866 5867 5867 5867 5867 5868 5868 5868 5868 5869 5869 5869 5869 5869 5870 5871 5871
5859 5858 5858 5858 5857 5857 5858 5858 5858 5858 5858 5857 5857 5858 5859 5860 5861 5861 5861 5862 5862 5863 5863 5863 5864 5864 5864 5864 5865 5865 5865 5866 5866 5866 5866 5867 5867 5867 5867 5867 5868 5868 5869
5857 5856 5856 5856 5856 5856 5856 5856 5856 5856 5856 5856 5856 5857 5857 5858 5859 5859 5859 5860 5860 5861 5861 5861 5861 5861 5861 5862 5862 5863 5863 5863 5863 5864 5864 5864 5865 5865 5865 5866 5866 5866 5866
5855 5854 5854 5854 5854 5854 5854 5854 5854 5854 5854 5855 5855 5855 5856 5856 5857 5857 5857 5858 5858 5859 5859 5858 5858 5858 5859 5859 5859 5860 5861 5861 5861 5861 5861 5862 5862 5862 5863 5863 5863 5864 5864
5852 5852 5852 5852 5852 5852 5852 5852 5852 5852 5853 5853 5853 5853 5853 5854 5854 5855 5855 5855 5856 5856 5856 5856 5856 5856 5856 5856 5856 5857 5857 5858 5858 5858 5858 5859 5859 5859 5860 5860 5860 5860 5861
5850 5850 5850 5850 5850 5850 5850 5850 5850 5850 5851 5851 5851 5851 5851 5852 5852 5852 5852 5852 5853 5853 5853 5853 5853 5853 5853 5853 5853 5854 5854 5854 5855 5855 5855 5856 5856 5856 5856 5857 5857 5857 5858
5848 5848 5848 5848 5848 5848 5848 5848 5848 5848 5848 5848 5848 5849 5849 5849 5849 5849 5849 5849 5850 5850 5850 5850 5850 5850 5850 5850 5850 5850 5850 5851 5851 5852 5852 5852 5852 5852 5853 5853 5854 5854 5854
5845 5845 5845 5845 5845 5845 5845 5845 5845 5845 5846 5846 5846 5845 5846 5846 5845 5845 5846 5846 5846 5846 5846 5847 5847 5847 5847 5847 5847 5847 5847 5847 5847 5848 5848 5848 5848 5848 5848 5849 5849 5850 5850
5842 5842 5842 5842 5842 5842 5842 5842 5842 5842 5842 5842 5842 5842 5842 5842 5842 5842 5842 5842 5842 5843 5843 5843 5843 5843 5843 5843 5843 5843 5843 5843 5843 5843 5843 5843 5843 5844 5844 5844 5845 5845 5845
5840 5839 5839 5839 5839 5839 5839 5839 5839 5839 5838 5838 5838 5838 5838 5838 5838 5839 5839 5838 5839 5839 5839 5838 5838 5838 5838 5838 5838 5839 5839 5838 5838 5839 5839 5839 5839 5839 5839 5839 5840 5840 5840
5837 5836 5836 5836 5836 5836 5835 5835 5835 5835 5834 5834 5834 5834 5834 5833 5833 5834 5834 5834 5834 5834 5834 5834 5833 5833 5833 5833 5833 5834 5834 5834 5833 5833 5834 5834 5834 5834 5834 5835 5835 5835 5835
5833 5833 5833 5833 5832 5832 5832 5831 5831 5830 5830 5830 5830 5830 5829 5829 5829 5829 5829 5830 5830 5829 5829 5829 5828 5828 5828 5828 5828 5828 5828 5828 5828 5828 5829 5829 5829 5829 5829 5829 5829 5830 5830
5829 5829 5829 5829 5829 5828 5828 5827 5827 5826 5826 5826 5826 5825 5825 5824 5824 5824 5824 5824 5824 5824 5824 5823 5823 5823 5822 5822 5822 5823 5823 5823 5823 5823 5823 5823 5823 5823 5823 5823 5824 5824 5824
5825 5825 5825 5825 5825 5824 5824 5823 5823 5823 5822 5822 5821 5821 5821 5820 5819 5819 5819 5819 5819 5819 5818 5818 5817 5817 5817 5816 5816 5816 5816 5816 5817 5817 5817 5817 5817 5817 5817 5817 5817 5818 5818
5820 5820 5820 5820 5820 5820 5820 5819 5819 5819 5818 5817 5817 5816 5816 5815 5815 5814 5814 5813 5813 5813 5812 5812 5811 5811 5811 5810 5810 5810 5810 5810 5810 5810 5810 5810 5810 5811 5811 5811 5811 5811 5811
5815 5815 5815 5815 5815 5815 5815 5815 5814 5814 5813 5813 5812 5812 5811 5810 5810 5809 5809 5808 5807 5806 5806 5805 5804 5804 5804 5804 5804 5803 5803 5803 5803 5803 5803 5803 5804 5804 5804 5804 5804 5804 5804
5809 5810 5810 5810 5810 5810 5809 5809 5809 5809 5808 5808 5807 5807 5806 5805 5805 5804 5803 5802 5801 5800 5799 5799 5798 5797 5797 5796 5796 5796 5796 5796 5796 5796 5796 5796 5796 5796 5796 5796 5796 5796 5797
5804 5804 5805 5805 5805 5804 5804 5804 5803 5803 5803 5802 5802 5801 5801 5800 5799 5798 5797 5796 5794 5793 5792 5792 5791 5790 5790 5789 5789 5789 5789 5788 5788 5788 5789 5789 5789 5789 5788 5788 5788 5788 5789
5798 5799 5799 5799 5799 5799 5799 5798 5798 5797 5797 5797 5796 5795 5795 5794 5793 5792 5790 5789 5788 5787 5785 5784 5783 5783 5782 5782 5782 5782 5781 5781 5781 5781 5781 5781 5781 5781 5780 5780 5780 5780 5780
5792 5792 5793 5793 5793 5793 5792 5792 5792 5792 5791 5790 5790 5789 5788 5787 5786 5785 5784 5783 5782 5780 5779 5778 5777 5776 5776 5775 5775 5775 5774 5774 5774 5773 5773 5773 5773 5773 5773 5772 5772 5772 5772
5786 5786 5786 5786 5787 5787 5786 5786 5786 5786 5785 5784 5784 5783 5782 5781 5780 5779 5778 5777 5775 5774 5773 5772 5771 5770 5770 5769 5768 5767 5767 5766 5766 5766 5765 5765 5765 5766 5766 5765 5765 5765 5765
5780 5780 5780 5780 5781 5781 5780 5780 5780 5780 5779 5778 5778 5777 5776 5775 5774 5773 5772 5770 5769 5768 5767 5766 5765 5764 5763 5762 5761 5761 5760 5760 5760 5759 5758 5758 5757 5758 5758 5758 5758 5757 5757
5773 5773 5774 5774 5774 5775 5775 5774 5774 5774 5773 5772 5772 5771 5770 5769 5768 5767 5766 5764 5763 5761 5761 5760 5759 5758 5757 5756 5755 5754 5753 5753 5753 5752 5751 5751 5750 5750 5750 5750 5750 5750 5750
5767 5768 5768 5768 5768 5769 5769 5769 5768 5767 5767 5766 5766 5765 5764 5763 5762 5761 5759 5758 5757 5756 5755 5754 5753 5752 5750 5749 5748 5748 5747 5746 5746 5745 5744 5744 5744 5743 5743 5743 5743 5743 5743
5761 5761 5762 5762 5762 5762 5762 5762 5762 5761 5761 5760 5759 5759 5758 5757 5756 5755 5754 5752 5751 5750 5749 5747 5746 5745 5744 5743 5742 5742 5741 5740 5740 5740 5738 5737 5737 5737 5737 5737 5736 5736 5736
5754 5755 5755 5756 5756 5756 5756 5756 5755 5755 5754 5754 5753 5753 5752 5751 5750 5749 5748 5747 5746 5745 5743 5742 5740 5739 5738 5738 5737 5736 5735 5734 5734 5733 5732 5731 5731 5730 5730 5730 5730 5730 5729